Location: Bourg-d�Oueil
(42.8588°N, 0.4991°E)
Time: 14:21:44
(UTC+00:00)

Cosmos 1455 Rocket - Pass Details

Date: 16 June 2021
Orbit: 605 x 629 km, 82.5° (Epoch: 31 July)

Event Time Altitude Azimuth Distance (km) Brightness Sun altitude
Rises 22:05:08 0° 342° (NNW) 2,923 8.1 -18.8°
Reaches altitude 10° 22:07:32 10° 333° (NNW) 2,013 6.9 -19.0°
Maximum altitude 22:11:30 32° 270° (W) 1,075 4.5 -19.3°
Enters shadow 22:14:01 19° 219° (SW) 1,515 4.8 -19.5°
